Voltar ao catálogo

NAVSPASUR ROD 1

AtivoMilitarPO
NORAD 1515·PAYLOAD·🇺🇸 United States

Lançado Aug 13, 1965 de Vandenberg Space Force Base

Loading…

Próximas Passagens (próximas 24 horas)

TLE

AtualizadoSource: Space-Track

Época: Sep 14, 2026, 09:11 UTC

1 01515U 65065G   26257.38273749  .00000531  00000-0  79541-3 0  9997
2 01515  90.0281 214.4754 0063664  56.5377  96.8665 13.51085705992363

Acompanhe NAVSPASUR ROD 1 em tempo real com AllMySat

Download on the App Store